Location: Sedan
(39.2354°N, 78.5718°W)
Time: 23:00:00
(UTC+00:00)

Envisat - Pass Details

Date: 05 December 2021
Orbit: 764 x 766 km, 98.2° (Epoch: 21 January)

Event Time Altitude Azimuth Distance (km) Brightness Sun altitude
Rises 09:56:45 0° 16° (NNE) 3,240 6.3 -26.8°
Reaches altitude 10° 09:59:06 10° 21° (NNE) 2,309 5.6 -26.4°
Maximum altitude 10:04:07 59° 100° (E) 878 3.5 -25.4°
Drops below altitude 10° 10:09:07 10° 181° (S) 2,292 5.6 -24.5°
Sets 10:11:26 0° 184° (S) 3,214 6.3 -24.0°
